Edwards AFB North Base, CA

1:11 PM PST on November 14, 2019 (GMT -0800)
Edwards AFB North Base

Weather History for K9L2 - September, 2019

Change the Weather History Date:

Monday, September 9, 2019

  Actual Average (KEDW) Record (KEDW)
Temperature  
Mean Temperature 70 °F -  
Max Temperature 90 °F 91 °F 102 °F (2018)
Min Temperature 50 °F 58 °F 48 °F (2002)
Cooling Degree Days 4    
Growing Degree Days 20 (Base 50)    
Moisture  
Dew Point 38 °F    
Average Humidity 32    
Maximum Humidity 62    
Minimum Humidity 14    
Precipitation  
Precipitation 0.00 in - - ()
Sea Level Pressure  
Sea Level Pressure 29.79 in    
Wind  
Wind Speed 7 mph ()    
Max Wind Speed 24 mph    
Max Gust Speed 34 mph    
Visibility 8.9 miles    
Events      
Averages and records for this station are not official NWS values.
T = Trace of Precipitation, MM = Missing Value Source: Averaged Metar Reports

Daily Weather History Graph

Daily Weather History Graph

Search for Another Location

Airport or City:

Astronomy

Sep. 09, 2019 Rise Set
Actual Time 6:29 AM PDT 7:07 PM PDT
Civil Twilight 6:04 AM PDT 7:32 PM PDT
Nautical Twilight 5:34 AM PDT 8:02 PM PDT
Astronomical Twilight 5:03 AM PDT 8:33 PM PDT
Moon 4:55 PM PDT (9/9) 2:16 AM PDT (9/9)
Length of Visible Light 13h 28m
Length of Day
12h 37m
Waxing Gibbous, 83% of the Moon is Illuminated
Sep 9
Waxing Gibbous
Sep 13
Full
Sep 21
Last Quarter
Sep 28
New
Oct 5
First Quarter

Hourly Weather History & Observations

Time (PDT) Temp. Dew Point Humidity Pressure Visibility Wind Dir Wind Speed Gust Speed Precip Events Conditions
12:58 AM 63.0 °F 29.8 °F 29% 29.80 in 10.0 mi SE 4.6 mph - N/A   Clear
1:58 AM 58.6 °F 32.5 °F 37% 29.80 in 10.0 mi Calm Calm - N/A   Clear
3:58 AM 53.4 °F 34.2 °F 48% 29.81 in 10.0 mi Calm Calm - N/A   Clear
4:58 AM 52.0 °F 36.1 °F 55% 29.82 in 10.0 mi Calm Calm - N/A   Clear
5:58 AM 52.7 °F 38.7 °F 59% 29.81 in 10.0 mi Calm Calm - N/A   Clear
6:58 AM 50.0 °F 37.6 °F 62% 29.85 in 10.0 mi Calm Calm - N/A   Clear
7:58 AM 54.9 °F 34.5 °F 46% 29.86 in 10.0 mi Calm Calm - N/A   Clear
8:58 AM 63.9 °F 39.9 °F 41% 29.85 in 10.0 mi Calm Calm - N/A   Clear
9:58 AM 73.4 °F 40.1 °F 30% 29.84 in 9.0 mi NE 4.6 mph - N/A   Clear
10:58 AM 78.8 °F 40.5 °F 25% 29.83 in 8.0 mi ESE 4.6 mph - N/A   Clear
11:58 AM 85.1 °F 37.6 °F 18% 29.80 in 8.0 mi SW 15.0 mph - N/A   Clear
12:58 PM 87.1 °F 37.0 °F 17% 29.78 in 8.0 mi WSW 9.2 mph 21.9 mph N/A   Clear
1:58 PM 89.4 °F 33.3 °F 14% 29.75 in 7.0 mi SSW 10.4 mph - N/A   Clear
2:29 PM 89.6 °F 41.0 °F 18% 29.74 in 8.0 mi West 18.4 mph 25.3 mph N/A   Clear
2:58 PM 89.6 °F 39.4 °F 17% 29.74 in 8.0 mi WSW 15.0 mph 21.9 mph N/A   Clear
3:17 PM 89.6 °F 39.2 °F 17% 29.74 in 7.0 mi WSW 15.0 mph 23.0 mph N/A   Clear
3:58 PM 88.7 °F 39.7 °F 18% 29.73 in 8.0 mi West 20.7 mph 28.8 mph N/A   Clear
4:58 PM 85.5 °F 40.8 °F 21% 29.73 in 7.0 mi WSW 21.9 mph 27.6 mph N/A   Clear
5:58 PM 82.4 °F 39.4 °F 22% 29.74 in 8.0 mi West 21.9 mph 27.6 mph N/A   Clear
6:58 PM 76.8 °F 41.5 °F 28% 29.76 in 8.0 mi West 24.2 mph 34.5 mph N/A   Clear
7:58 PM 73.4 °F 43.7 °F 34% 29.78 in 10.0 mi SW 18.4 mph 26.5 mph N/A   Clear
9:58 PM 70.0 °F 40.8 °F 35% 29.78 in 10.0 mi West 17.3 mph - N/A   Clear
10:58 PM 69.3 °F 41.2 °F 36% 29.75 in 10.0 mi SW 18.4 mph - N/A   Clear
11:58 PM 68.7 °F 37.8 °F 32% 29.76 in 9.0 mi SW 10.4 mph - N/A   Clear